Data supplied by UK-AIR on 5/4/2008
All Data GMT hour ending 
Status: R =Ratified P=Provisional,P*=As supplied
,,Somerton,,,,,,,,,,,,,,,,,,,,,,,
Date,time,"Ozone",status,unit
 
01-01-1999,01:00,,,
01-01-1999,02:00,78,R,ugm-3
01-01-1999,03:00,76,R,ugm-3
01-01-1999,04:00,72,R,ugm-3
01-01-1999,05:00,68,R,ugm-3
01-01-1999,06:00,64,R,ugm-3
01-01-1999,07:00,66,R,ugm-3
01-01-1999,08:00,58,R,ugm-3
01-01-1999,09:00,56,R,ugm-3
01-01-1999,10:00,64,R,ugm-3
01-01-1999,11:00,74,R,ugm-3
01-01-1999,12:00,74,R,ugm-3
01-01-1999,13:00,76,R,ugm-3
01-01-1999,14:00,78,R,ugm-3
01-01-1999,15:00,76,R,ugm-3
01-01-1999,16:00,74,R,ugm-3
01-01-1999,17:00,76,R,ugm-3
01-01-1999,18:00,78,R,ugm-3
01-01-1999,19:00,76,R,ugm-3
01-01-1999,20:00,78,R,ugm-3
01-01-1999,21:00,78,R,ugm-3
01-01-1999,22:00,76,R,ugm-3
01-01-1999,23:00,78,R,ugm-3
01-01-1999,24:00,78,R,ugm-3
02-01-1999,01:00,80,R,ugm-3
02-01-1999,02:00,82,R,ugm-3
02-01-1999,03:00,88,R,ugm-3
02-01-1999,04:00,84,R,ugm-3
02-01-1999,05:00,78,R,ugm-3
02-01-1999,06:00,78,R,ugm-3
02-01-1999,07:00,76,R,ugm-3
02-01-1999,08:00,74,R,ugm-3
02-01-1999,09:00,80,R,ugm-3
02-01-1999,10:00,78,R,ugm-3
02-01-1999,11:00,80,R,ugm-3
02-01-1999,12:00,82,R,ugm-3
02-01-1999,13:00,84,R,ugm-3
02-01-1999,14:00,76,R,ugm-3
02-01-1999,15:00,78,R,ugm-3
02-01-1999,16:00,78,R,ugm-3
02-01-1999,17:00,80,R,ugm-3
02-01-1999,18:00,78,R,ugm-3
02-01-1999,19:00,90,R,ugm-3
02-01-1999,20:00,84,R,ugm-3
02-01-1999,21:00,80,R,ugm-3
02-01-1999,22:00,78,R,ugm-3
02-01-1999,23:00,74,R,ugm-3
02-01-1999,24:00,72,R,ugm-3
03-01-1999,01:00,76,R,ugm-3
03-01-1999,02:00,78,R,ugm-3
03-01-1999,03:00,82,R,ugm-3
03-01-1999,04:00,86,R,ugm-3
03-01-1999,05:00,84,R,ugm-3
03-01-1999,06:00,84,R,ugm-3
03-01-1999,07:00,92,R,ugm-3
03-01-1999,08:00,90,R,ugm-3
03-01-1999,09:00,84,R,ugm-3
03-01-1999,10:00,84,R,ugm-3
03-01-1999,11:00,86,R,ugm-3
03-01-1999,12:00,86,R,ugm-3
03-01-1999,13:00,86,R,ugm-3
03-01-1999,14:00,84,R,ugm-3
03-01-1999,15:00,80,R,ugm-3
03-01-1999,16:00,72,R,ugm-3
03-01-1999,17:00,62,R,ugm-3
03-01-1999,18:00,56,R,ugm-3
03-01-1999,19:00,74,R,ugm-3
03-01-1999,20:00,82,R,ugm-3
03-01-1999,21:00,86,R,ugm-3
03-01-1999,22:00,86,R,ugm-3
03-01-1999,23:00,78,R,ugm-3
03-01-1999,24:00,70,R,ugm-3
04-01-1999,01:00,66,R,ugm-3
04-01-1999,02:00,66,R,ugm-3
04-01-1999,03:00,64,R,ugm-3
04-01-1999,04:00,62,R,ugm-3
04-01-1999,05:00,62,R,ugm-3
04-01-1999,06:00,66,R,ugm-3
04-01-1999,07:00,68,R,ugm-3
04-01-1999,08:00,78,R,ugm-3
04-01-1999,09:00,76,R,ugm-3
04-01-1999,10:00,74,R,ugm-3
04-01-1999,11:00,70,R,ugm-3
04-01-1999,12:00,74,R,ugm-3
04-01-1999,13:00,74,R,ugm-3
04-01-1999,14:00,72,R,ugm-3
04-01-1999,15:00,70,R,ugm-3
04-01-1999,16:00,66,R,ugm-3
04-01-1999,17:00,58,R,ugm-3
04-01-1999,18:00,38,R,ugm-3
04-01-1999,19:00,46,R,ugm-3
04-01-1999,20:00,64,R,ugm-3
04-01-1999,21:00,74,R,ugm-3
04-01-1999,22:00,72,R,ugm-3
04-01-1999,23:00,66,R,ugm-3
04-01-1999,24:00,70,R,ugm-3
05-01-1999,01:00,70,R,ugm-3
05-01-1999,02:00,68,R,ugm-3
05-01-1999,03:00,68,R,ugm-3
05-01-1999,04:00,68,R,ugm-3
05-01-1999,05:00,66,R,ugm-3
05-01-1999,06:00,66,R,ugm-3
05-01-1999,07:00,66,R,ugm-3
05-01-1999,08:00,66,R,ugm-3
05-01-1999,09:00,66,R,ugm-3
05-01-1999,10:00,68,R,ugm-3
05-01-1999,11:00,64,R,ugm-3
05-01-1999,12:00,64,R,ugm-3
05-01-1999,13:00,62,R,ugm-3
05-01-1999,14:00,64,R,ugm-3
05-01-1999,15:00,62,R,ugm-3
05-01-1999,16:00,66,R,ugm-3
05-01-1999,17:00,64,R,ugm-3
05-01-1999,18:00,56,R,ugm-3
05-01-1999,19:00,48,R,ugm-3
05-01-1999,20:00,56,R,ugm-3
05-01-1999,21:00,60,R,ugm-3
05-01-1999,22:00,64,R,ugm-3
05-01-1999,23:00,64,R,ugm-3
05-01-1999,24:00,60,R,ugm-3
06-01-1999,01:00,62,R,ugm-3
06-01-1999,02:00,62,R,ugm-3
06-01-1999,03:00,66,R,ugm-3
06-01-1999,04:00,66,R,ugm-3
06-01-1999,05:00,66,R,ugm-3
06-01-1999,06:00,66,R,ugm-3
06-01-1999,07:00,68,R,ugm-3
06-01-1999,08:00,66,R,ugm-3
06-01-1999,09:00,66,R,ugm-3
06-01-1999,10:00,64,R,ugm-3
06-01-1999,11:00,60,R,ugm-3
06-01-1999,12:00,62,R,ugm-3
06-01-1999,13:00,64,R,ugm-3
06-01-1999,14:00,66,R,ugm-3
06-01-1999,15:00,66,R,ugm-3
06-01-1999,16:00,64,R,ugm-3
06-01-1999,17:00,64,R,ugm-3
06-01-1999,18:00,70,R,ugm-3
06-01-1999,19:00,78,R,ugm-3
06-01-1999,20:00,78,R,ugm-3
06-01-1999,21:00,74,R,ugm-3
06-01-1999,22:00,68,R,ugm-3
06-01-1999,23:00,68,R,ugm-3
06-01-1999,24:00,66,R,ugm-3
07-01-1999,01:00,62,R,ugm-3
07-01-1999,02:00,70,R,ugm-3
07-01-1999,03:00,70,R,ugm-3
07-01-1999,04:00,70,R,ugm-3
07-01-1999,05:00,66,R,ugm-3
07-01-1999,06:00,60,R,ugm-3
07-01-1999,07:00,58,R,ugm-3
07-01-1999,08:00,60,R,ugm-3
07-01-1999,09:00,58,R,ugm-3
07-01-1999,10:00,,,
07-01-1999,11:00,62,R,ugm-3
07-01-1999,12:00,66,R,ugm-3
07-01-1999,13:00,72,R,ugm-3
07-01-1999,14:00,82,R,ugm-3
07-01-1999,15:00,84,R,ugm-3
07-01-1999,16:00,,,
07-01-1999,17:00,80,R,ugm-3
07-01-1999,18:00,82,R,ugm-3
07-01-1999,19:00,80,R,ugm-3
07-01-1999,20:00,74,R,ugm-3
07-01-1999,21:00,76,R,ugm-3
07-01-1999,22:00,70,R,ugm-3
07-01-1999,23:00,64,R,ugm-3
07-01-1999,24:00,64,R,ugm-3
08-01-1999,01:00,64,R,ugm-3
08-01-1999,02:00,64,R,ugm-3
08-01-1999,03:00,64,R,ugm-3
08-01-1999,04:00,64,R,ugm-3
08-01-1999,05:00,62,R,ugm-3
08-01-1999,06:00,60,R,ugm-3
08-01-1999,07:00,66,R,ugm-3
08-01-1999,08:00,64,R,ugm-3
08-01-1999,09:00,54,R,ugm-3
08-01-1999,10:00,62,R,ugm-3
08-01-1999,11:00,70,R,ugm-3
08-01-1999,12:00,70,R,ugm-3
08-01-1999,13:00,70,R,ugm-3
08-01-1999,14:00,74,R,ugm-3
08-01-1999,15:00,68,R,ugm-3
08-01-1999,16:00,64,R,ugm-3
08-01-1999,17:00,52,R,ugm-3
08-01-1999,18:00,60,R,ugm-3
08-01-1999,19:00,58,R,ugm-3
08-01-1999,20:00,48,R,ugm-3
08-01-1999,21:00,30,R,ugm-3
08-01-1999,22:00,36,R,ugm-3
08-01-1999,23:00,46,R,ugm-3
08-01-1999,24:00,46,R,ugm-3
09-01-1999,01:00,42,R,ugm-3
09-01-1999,02:00,38,R,ugm-3
09-01-1999,03:00,34,R,ugm-3
09-01-1999,04:00,30,R,ugm-3
09-01-1999,05:00,28,R,ugm-3
09-01-1999,06:00,32,R,ugm-3
09-01-1999,07:00,40,R,ugm-3
09-01-1999,08:00,44,R,ugm-3
09-01-1999,09:00,44,R,ugm-3
09-01-1999,10:00,44,R,ugm-3
09-01-1999,11:00,44,R,ugm-3
09-01-1999,12:00,50,R,ugm-3
09-01-1999,13:00,56,R,ugm-3
09-01-1999,14:00,60,R,ugm-3
09-01-1999,15:00,58,R,ugm-3
09-01-1999,16:00,50,R,ugm-3
09-01-1999,17:00,42,R,ugm-3
09-01-1999,18:00,38,R,ugm-3
09-01-1999,19:00,38,R,ugm-3
09-01-1999,20:00,36,R,ugm-3
09-01-1999,21:00,30,R,ugm-3
09-01-1999,22:00,16,R,ugm-3
09-01-1999,23:00,14,R,ugm-3
09-01-1999,24:00,18,R,ugm-3
10-01-1999,01:00,14,R,ugm-3
10-01-1999,02:00,16,R,ugm-3
10-01-1999,03:00,14,R,ugm-3
10-01-1999,04:00,14,R,ugm-3
10-01-1999,05:00,14,R,ugm-3
10-01-1999,06:00,14,R,ugm-3
10-01-1999,07:00,14,R,ugm-3
10-01-1999,08:00,14,R,ugm-3
10-01-1999,09:00,12,R,ugm-3
10-01-1999,10:00,24,R,ugm-3
10-01-1999,11:00,34,R,ugm-3
10-01-1999,12:00,46,R,ugm-3
10-01-1999,13:00,40,R,ugm-3
10-01-1999,14:00,50,R,ugm-3
10-01-1999,15:00,62,R,ugm-3
10-01-1999,16:00,54,R,ugm-3
10-01-1999,17:00,46,R,ugm-3
10-01-1999,18:00,34,R,ugm-3
10-01-1999,19:00,18,R,ugm-3
10-01-1999,20:00,24,R,ugm-3
10-01-1999,21:00,30,R,ugm-3
10-01-1999,22:00,18,R,ugm-3
10-01-1999,23:00,6,R,ugm-3
10-01-1999,24:00,10,R,ugm-3
11-01-1999,01:00,16,R,ugm-3
11-01-1999,02:00,16,R,ugm-3
11-01-1999,03:00,20,R,ugm-3
11-01-1999,04:00,26,R,ugm-3
11-01-1999,05:00,34,R,ugm-3
11-01-1999,06:00,42,R,ugm-3
11-01-1999,07:00,42,R,ugm-3
11-01-1999,08:00,38,R,ugm-3
11-01-1999,09:00,26,R,ugm-3
11-01-1999,10:00,38,R,ugm-3
11-01-1999,11:00,,,
11-01-1999,12:00,46,R,ugm-3
11-01-1999,13:00,58,R,ugm-3
11-01-1999,14:00,64,R,ugm-3
11-01-1999,15:00,52,R,ugm-3
11-01-1999,16:00,44,R,ugm-3
11-01-1999,17:00,40,R,ugm-3
11-01-1999,18:00,34,R,ugm-3
11-01-1999,19:00,28,R,ugm-3
11-01-1999,20:00,24,R,ugm-3
11-01-1999,21:00,10,R,ugm-3
11-01-1999,22:00,10,R,ugm-3
11-01-1999,23:00,2,R,ugm-3
11-01-1999,24:00,4,R,ugm-3
12-01-1999,01:00,8,R,ugm-3
12-01-1999,02:00,16,R,ugm-3
12-01-1999,03:00,24,R,ugm-3
12-01-1999,04:00,38,R,ugm-3
12-01-1999,05:00,52,R,ugm-3
12-01-1999,06:00,68,R,ugm-3
12-01-1999,07:00,74,R,ugm-3
12-01-1999,08:00,72,R,ugm-3
12-01-1999,09:00,74,R,ugm-3
12-01-1999,10:00,78,R,ugm-3
12-01-1999,11:00,78,R,ugm-3
12-01-1999,12:00,78,R,ugm-3
12-01-1999,13:00,68,R,ugm-3
12-01-1999,14:00,80,R,ugm-3
12-01-1999,15:00,80,R,ugm-3
12-01-1999,16:00,78,R,ugm-3
12-01-1999,17:00,78,R,ugm-3
12-01-1999,18:00,76,R,ugm-3
12-01-1999,19:00,76,R,ugm-3
12-01-1999,20:00,78,R,ugm-3
12-01-1999,21:00,78,R,ugm-3
12-01-1999,22:00,78,R,ugm-3
12-01-1999,23:00,82,R,ugm-3
12-01-1999,24:00,78,R,ugm-3
13-01-1999,01:00,80,R,ugm-3
13-01-1999,02:00,78,R,ugm-3
13-01-1999,03:00,80,R,ugm-3
13-01-1999,04:00,80,R,ugm-3
13-01-1999,05:00,78,R,ugm-3
13-01-1999,06:00,66,R,ugm-3
13-01-1999,07:00,60,R,ugm-3
13-01-1999,08:00,56,R,ugm-3
13-01-1999,09:00,50,R,ugm-3
13-01-1999,10:00,56,R,ugm-3
13-01-1999,11:00,54,R,ugm-3
13-01-1999,12:00,50,R,ugm-3
13-01-1999,13:00,60,R,ugm-3
13-01-1999,14:00,64,R,ugm-3
13-01-1999,15:00,68,R,ugm-3
13-01-1999,16:00,62,R,ugm-3
13-01-1999,17:00,60,R,ugm-3
13-01-1999,18:00,70,R,ugm-3
13-01-1999,19:00,78,R,ugm-3
13-01-1999,20:00,86,R,ugm-3
13-01-1999,21:00,80,R,ugm-3
13-01-1999,22:00,82,R,ugm-3
13-01-1999,23:00,80,R,ugm-3
13-01-1999,24:00,78,R,ugm-3
14-01-1999,01:00,76,R,ugm-3
14-01-1999,02:00,82,R,ugm-3
14-01-1999,03:00,82,R,ugm-3
14-01-1999,04:00,82,R,ugm-3
14-01-1999,05:00,80,R,ugm-3
14-01-1999,06:00,78,R,ugm-3
14-01-1999,07:00,74,R,ugm-3
14-01-1999,08:00,66,R,ugm-3
14-01-1999,09:00,58,R,ugm-3
14-01-1999,10:00,56,R,ugm-3
14-01-1999,11:00,58,R,ugm-3
14-01-1999,12:00,66,R,ugm-3
14-01-1999,13:00,70,R,ugm-3
14-01-1999,14:00,70,R,ugm-3
14-01-1999,15:00,72,R,ugm-3
14-01-1999,16:00,70,R,ugm-3
14-01-1999,17:00,72,R,ugm-3
14-01-1999,18:00,78,R,ugm-3
14-01-1999,19:00,80,R,ugm-3
14-01-1999,20:00,80,R,ugm-3
14-01-1999,21:00,78,R,ugm-3
14-01-1999,22:00,78,R,ugm-3
14-01-1999,23:00,74,R,ugm-3
14-01-1999,24:00,74,R,ugm-3
15-01-1999,01:00,74,R,ugm-3
15-01-1999,02:00,74,R,ugm-3
15-01-1999,03:00,76,R,ugm-3
15-01-1999,04:00,74,R,ugm-3
15-01-1999,05:00,78,R,ugm-3
15-01-1999,06:00,78,R,ugm-3
15-01-1999,07:00,82,R,ugm-3
15-01-1999,08:00,82,R,ugm-3
15-01-1999,09:00,82,R,ugm-3
15-01-1999,10:00,82,R,ugm-3
15-01-1999,11:00,82,R,ugm-3
15-01-1999,12:00,84,R,ugm-3
15-01-1999,13:00,84,R,ugm-3
15-01-1999,14:00,84,R,ugm-3
15-01-1999,15:00,84,R,ugm-3
15-01-1999,16:00,84,R,ugm-3
15-01-1999,17:00,86,R,ugm-3
15-01-1999,18:00,86,R,ugm-3
15-01-1999,19:00,86,R,ugm-3
15-01-1999,20:00,86,R,ugm-3
15-01-1999,21:00,84,R,ugm-3
15-01-1999,22:00,82,R,ugm-3
15-01-1999,23:00,84,R,ugm-3
15-01-1999,24:00,84,R,ugm-3
16-01-1999,01:00,84,R,ugm-3
16-01-1999,02:00,86,R,ugm-3
16-01-1999,03:00,86,R,ugm-3
16-01-1999,04:00,90,R,ugm-3
16-01-1999,05:00,90,R,ugm-3
16-01-1999,06:00,90,R,ugm-3
16-01-1999,07:00,86,R,ugm-3
16-01-1999,08:00,82,R,ugm-3
16-01-1999,09:00,74,R,ugm-3
16-01-1999,10:00,76,R,ugm-3
16-01-1999,11:00,80,R,ugm-3
16-01-1999,12:00,76,R,ugm-3
16-01-1999,13:00,76,R,ugm-3
16-01-1999,14:00,78,R,ugm-3
16-01-1999,15:00,78,R,ugm-3
16-01-1999,16:00,74,R,ugm-3
16-01-1999,17:00,78,R,ugm-3
16-01-1999,18:00,70,R,ugm-3
16-01-1999,19:00,66,R,ugm-3
16-01-1999,20:00,74,R,ugm-3
16-01-1999,21:00,78,R,ugm-3
16-01-1999,22:00,74,R,ugm-3
16-01-1999,23:00,76,R,ugm-3
16-01-1999,24:00,78,R,ugm-3
17-01-1999,01:00,74,R,ugm-3
17-01-1999,02:00,76,R,ugm-3
17-01-1999,03:00,78,R,ugm-3
17-01-1999,04:00,82,R,ugm-3
17-01-1999,05:00,82,R,ugm-3
17-01-1999,06:00,76,R,ugm-3
17-01-1999,07:00,78,R,ugm-3
17-01-1999,08:00,82,R,ugm-3
17-01-1999,09:00,80,R,ugm-3
17-01-1999,10:00,78,R,ugm-3
17-01-1999,11:00,74,R,ugm-3
17-01-1999,12:00,80,R,ugm-3
17-01-1999,13:00,82,R,ugm-3
17-01-1999,14:00,82,R,ugm-3
17-01-1999,15:00,84,R,ugm-3
17-01-1999,16:00,80,R,ugm-3
17-01-1999,17:00,70,R,ugm-3
17-01-1999,18:00,60,R,ugm-3
17-01-1999,19:00,64,R,ugm-3
17-01-1999,20:00,70,R,ugm-3
17-01-1999,21:00,68,R,ugm-3
17-01-1999,22:00,72,R,ugm-3
17-01-1999,23:00,70,R,ugm-3
17-01-1999,24:00,66,R,ugm-3
18-01-1999,01:00,64,R,ugm-3
18-01-1999,02:00,62,R,ugm-3
18-01-1999,03:00,62,R,ugm-3
18-01-1999,04:00,64,R,ugm-3
18-01-1999,05:00,62,R,ugm-3
18-01-1999,06:00,60,R,ugm-3
18-01-1999,07:00,62,R,ugm-3
18-01-1999,08:00,64,R,ugm-3
18-01-1999,09:00,70,R,ugm-3
18-01-1999,10:00,76,R,ugm-3
18-01-1999,11:00,82,R,ugm-3
18-01-1999,12:00,80,R,ugm-3
18-01-1999,13:00,84,R,ugm-3
18-01-1999,14:00,82,R,ugm-3
18-01-1999,15:00,86,R,ugm-3
18-01-1999,16:00,86,R,ugm-3
18-01-1999,17:00,84,R,ugm-3
18-01-1999,18:00,84,R,ugm-3
18-01-1999,19:00,80,R,ugm-3
18-01-1999,20:00,78,R,ugm-3
18-01-1999,21:00,76,R,ugm-3
18-01-1999,22:00,80,R,ugm-3
18-01-1999,23:00,78,R,ugm-3
18-01-1999,24:00,78,R,ugm-3
19-01-1999,01:00,76,R,ugm-3
19-01-1999,02:00,80,R,ugm-3
19-01-1999,03:00,78,R,ugm-3
19-01-1999,04:00,78,R,ugm-3
19-01-1999,05:00,78,R,ugm-3
19-01-1999,06:00,78,R,ugm-3
19-01-1999,07:00,80,R,ugm-3
19-01-1999,08:00,76,R,ugm-3
19-01-1999,09:00,74,R,ugm-3
19-01-1999,10:00,76,R,ugm-3
19-01-1999,11:00,72,R,ugm-3
19-01-1999,12:00,70,R,ugm-3
19-01-1999,13:00,70,R,ugm-3
19-01-1999,14:00,72,R,ugm-3
19-01-1999,15:00,70,R,ugm-3
19-01-1999,16:00,70,R,ugm-3
19-01-1999,17:00,72,R,ugm-3
19-01-1999,18:00,76,R,ugm-3
19-01-1999,19:00,80,R,ugm-3
19-01-1999,20:00,82,R,ugm-3
19-01-1999,21:00,82,R,ugm-3
19-01-1999,22:00,82,R,ugm-3
19-01-1999,23:00,86,R,ugm-3
19-01-1999,24:00,92,R,ugm-3
20-01-1999,01:00,86,R,ugm-3
20-01-1999,02:00,82,R,ugm-3
20-01-1999,03:00,82,R,ugm-3
20-01-1999,04:00,80,R,ugm-3
20-01-1999,05:00,84,R,ugm-3
20-01-1999,06:00,92,R,ugm-3
20-01-1999,07:00,92,R,ugm-3
20-01-1999,08:00,88,R,ugm-3
20-01-1999,09:00,86,R,ugm-3
20-01-1999,10:00,84,R,ugm-3
20-01-1999,11:00,84,R,ugm-3
20-01-1999,12:00,80,R,ugm-3
20-01-1999,13:00,74,R,ugm-3
20-01-1999,14:00,72,R,ugm-3
20-01-1999,15:00,70,R,ugm-3
20-01-1999,16:00,68,R,ugm-3
20-01-1999,17:00,62,R,ugm-3
20-01-1999,18:00,54,R,ugm-3
20-01-1999,19:00,54,R,ugm-3
20-01-1999,20:00,50,R,ugm-3
20-01-1999,21:00,48,R,ugm-3
20-01-1999,22:00,38,R,ugm-3
20-01-1999,23:00,38,R,ugm-3
20-01-1999,24:00,34,R,ugm-3
21-01-1999,01:00,40,R,ugm-3
21-01-1999,02:00,34,R,ugm-3
21-01-1999,03:00,26,R,ugm-3
21-01-1999,04:00,10,R,ugm-3
21-01-1999,05:00,8,R,ugm-3
21-01-1999,06:00,16,R,ugm-3
21-01-1999,07:00,4,R,ugm-3
21-01-1999,08:00,2,R,ugm-3
21-01-1999,09:00,6,R,ugm-3
21-01-1999,10:00,,,
21-01-1999,11:00,,,
21-01-1999,12:00,8,R,ugm-3
21-01-1999,13:00,18,R,ugm-3
21-01-1999,14:00,38,R,ugm-3
21-01-1999,15:00,42,R,ugm-3
21-01-1999,16:00,30,R,ugm-3
21-01-1999,17:00,16,R,ugm-3
21-01-1999,18:00,20,R,ugm-3
21-01-1999,19:00,44,R,ugm-3
21-01-1999,20:00,36,R,ugm-3
21-01-1999,21:00,36,R,ugm-3
21-01-1999,22:00,30,R,ugm-3
21-01-1999,23:00,28,R,ugm-3
21-01-1999,24:00,22,R,ugm-3
22-01-1999,01:00,24,R,ugm-3
22-01-1999,02:00,22,R,ugm-3
22-01-1999,03:00,22,R,ugm-3
22-01-1999,04:00,20,R,ugm-3
22-01-1999,05:00,22,R,ugm-3
22-01-1999,06:00,24,R,ugm-3
22-01-1999,07:00,20,R,ugm-3
22-01-1999,08:00,18,R,ugm-3
22-01-1999,09:00,16,R,ugm-3
22-01-1999,10:00,20,R,ugm-3
22-01-1999,11:00,20,R,ugm-3
22-01-1999,12:00,20,R,ugm-3
22-01-1999,13:00,18,R,ugm-3
22-01-1999,14:00,16,R,ugm-3
22-01-1999,15:00,,,
22-01-1999,16:00,10,R,ugm-3
22-01-1999,17:00,4,R,ugm-3
22-01-1999,18:00,2,R,ugm-3
22-01-1999,19:00,2,R,ugm-3
22-01-1999,20:00,2,R,ugm-3
22-01-1999,21:00,2,R,ugm-3
22-01-1999,22:00,2,R,ugm-3
22-01-1999,23:00,2,R,ugm-3
22-01-1999,24:00,2,R,ugm-3
23-01-1999,01:00,0,R,ugm-3
23-01-1999,02:00,0,R,ugm-3
23-01-1999,03:00,0,R,ugm-3
23-01-1999,04:00,2,R,ugm-3
23-01-1999,05:00,6,R,ugm-3
23-01-1999,06:00,2,R,ugm-3
23-01-1999,07:00,2,R,ugm-3
23-01-1999,08:00,4,R,ugm-3
23-01-1999,09:00,8,R,ugm-3
23-01-1999,10:00,50,R,ugm-3
23-01-1999,11:00,52,R,ugm-3
23-01-1999,12:00,58,R,ugm-3
23-01-1999,13:00,62,R,ugm-3
23-01-1999,14:00,58,R,ugm-3
23-01-1999,15:00,58,R,ugm-3
23-01-1999,16:00,60,R,ugm-3
23-01-1999,17:00,64,R,ugm-3
23-01-1999,18:00,68,R,ugm-3
23-01-1999,19:00,76,R,ugm-3
23-01-1999,20:00,82,R,ugm-3
23-01-1999,21:00,76,R,ugm-3
23-01-1999,22:00,72,R,ugm-3
23-01-1999,23:00,66,R,ugm-3
23-01-1999,24:00,60,R,ugm-3
24-01-1999,01:00,66,R,ugm-3
24-01-1999,02:00,66,R,ugm-3
24-01-1999,03:00,66,R,ugm-3
24-01-1999,04:00,68,R,ugm-3
24-01-1999,05:00,70,R,ugm-3
24-01-1999,06:00,68,R,ugm-3
24-01-1999,07:00,72,R,ugm-3
24-01-1999,08:00,68,R,ugm-3
24-01-1999,09:00,56,R,ugm-3
24-01-1999,10:00,46,R,ugm-3
24-01-1999,11:00,48,R,ugm-3
24-01-1999,12:00,66,R,ugm-3
24-01-1999,13:00,72,R,ugm-3
24-01-1999,14:00,68,R,ugm-3
24-01-1999,15:00,68,R,ugm-3
24-01-1999,16:00,70,R,ugm-3
24-01-1999,17:00,72,R,ugm-3
24-01-1999,18:00,72,R,ugm-3
24-01-1999,19:00,64,R,ugm-3
24-01-1999,20:00,68,R,ugm-3
24-01-1999,21:00,72,R,ugm-3
24-01-1999,22:00,74,R,ugm-3
24-01-1999,23:00,78,R,ugm-3
24-01-1999,24:00,80,R,ugm-3
25-01-1999,01:00,82,R,ugm-3
25-01-1999,02:00,82,R,ugm-3
25-01-1999,03:00,82,R,ugm-3
25-01-1999,04:00,82,R,ugm-3
25-01-1999,05:00,82,R,ugm-3
25-01-1999,06:00,82,R,ugm-3
25-01-1999,07:00,82,R,ugm-3
25-01-1999,08:00,82,R,ugm-3
25-01-1999,09:00,78,R,ugm-3
25-01-1999,10:00,80,R,ugm-3
25-01-1999,11:00,84,R,ugm-3
25-01-1999,12:00,82,R,ugm-3
25-01-1999,13:00,82,R,ugm-3
25-01-1999,14:00,82,R,ugm-3
25-01-1999,15:00,78,R,ugm-3
25-01-1999,16:00,78,R,ugm-3
25-01-1999,17:00,78,R,ugm-3
25-01-1999,18:00,74,R,ugm-3
25-01-1999,19:00,74,R,ugm-3
25-01-1999,20:00,74,R,ugm-3
25-01-1999,21:00,70,R,ugm-3
25-01-1999,22:00,62,R,ugm-3
25-01-1999,23:00,64,R,ugm-3
25-01-1999,24:00,66,R,ugm-3
26-01-1999,01:00,68,R,ugm-3
26-01-1999,02:00,70,R,ugm-3
26-01-1999,03:00,68,R,ugm-3
26-01-1999,04:00,72,R,ugm-3
26-01-1999,05:00,74,R,ugm-3
26-01-1999,06:00,74,R,ugm-3
26-01-1999,07:00,76,R,ugm-3
26-01-1999,08:00,64,R,ugm-3
26-01-1999,09:00,72,R,ugm-3
26-01-1999,10:00,72,R,ugm-3
26-01-1999,11:00,74,R,ugm-3
26-01-1999,12:00,76,R,ugm-3
26-01-1999,13:00,80,R,ugm-3
26-01-1999,14:00,78,R,ugm-3
26-01-1999,15:00,80,R,ugm-3
26-01-1999,16:00,84,R,ugm-3
26-01-1999,17:00,86,R,ugm-3
26-01-1999,18:00,86,R,ugm-3
26-01-1999,19:00,86,R,ugm-3
26-01-1999,20:00,84,R,ugm-3
26-01-1999,21:00,82,R,ugm-3
26-01-1999,22:00,82,R,ugm-3
26-01-1999,23:00,82,R,ugm-3
26-01-1999,24:00,74,R,ugm-3
27-01-1999,01:00,70,R,ugm-3
27-01-1999,02:00,82,R,ugm-3
27-01-1999,03:00,82,R,ugm-3
27-01-1999,04:00,80,R,ugm-3
27-01-1999,05:00,78,R,ugm-3
27-01-1999,06:00,78,R,ugm-3
27-01-1999,07:00,78,R,ugm-3
27-01-1999,08:00,66,R,ugm-3
27-01-1999,09:00,52,R,ugm-3
27-01-1999,10:00,50,R,ugm-3
27-01-1999,11:00,62,R,ugm-3
27-01-1999,12:00,74,R,ugm-3
27-01-1999,13:00,74,R,ugm-3
27-01-1999,14:00,70,R,ugm-3
27-01-1999,15:00,68,R,ugm-3
27-01-1999,16:00,64,R,ugm-3
27-01-1999,17:00,64,R,ugm-3
27-01-1999,18:00,60,R,ugm-3
27-01-1999,19:00,44,R,ugm-3
27-01-1999,20:00,62,R,ugm-3
27-01-1999,21:00,76,R,ugm-3
27-01-1999,22:00,78,R,ugm-3
27-01-1999,23:00,78,R,ugm-3
27-01-1999,24:00,78,R,ugm-3
28-01-1999,01:00,78,R,ugm-3
28-01-1999,02:00,80,R,ugm-3
28-01-1999,03:00,82,R,ugm-3
28-01-1999,04:00,82,R,ugm-3
28-01-1999,05:00,82,R,ugm-3
28-01-1999,06:00,82,R,ugm-3
28-01-1999,07:00,82,R,ugm-3
28-01-1999,08:00,80,R,ugm-3
28-01-1999,09:00,78,R,ugm-3
28-01-1999,10:00,78,R,ugm-3
28-01-1999,11:00,82,R,ugm-3
28-01-1999,12:00,82,R,ugm-3
28-01-1999,13:00,78,R,ugm-3
28-01-1999,14:00,76,R,ugm-3
28-01-1999,15:00,68,R,ugm-3
28-01-1999,16:00,62,R,ugm-3
28-01-1999,17:00,56,R,ugm-3
28-01-1999,18:00,58,R,ugm-3
28-01-1999,19:00,60,R,ugm-3
28-01-1999,20:00,62,R,ugm-3
28-01-1999,21:00,60,R,ugm-3
28-01-1999,22:00,62,R,ugm-3
28-01-1999,23:00,64,R,ugm-3
28-01-1999,24:00,68,R,ugm-3
29-01-1999,01:00,64,R,ugm-3
29-01-1999,02:00,58,R,ugm-3
29-01-1999,03:00,60,R,ugm-3
29-01-1999,04:00,62,R,ugm-3
29-01-1999,05:00,58,R,ugm-3
29-01-1999,06:00,52,R,ugm-3
29-01-1999,07:00,44,R,ugm-3
29-01-1999,08:00,28,R,ugm-3
29-01-1999,09:00,10,R,ugm-3
29-01-1999,10:00,8,R,ugm-3
29-01-1999,11:00,26,R,ugm-3
29-01-1999,12:00,42,R,ugm-3
29-01-1999,13:00,60,R,ugm-3
29-01-1999,14:00,74,R,ugm-3
29-01-1999,15:00,68,R,ugm-3
29-01-1999,16:00,32,R,ugm-3
29-01-1999,17:00,10,R,ugm-3
29-01-1999,18:00,32,R,ugm-3
29-01-1999,19:00,30,R,ugm-3
29-01-1999,20:00,24,R,ugm-3
29-01-1999,21:00,44,R,ugm-3
29-01-1999,22:00,52,R,ugm-3
29-01-1999,23:00,50,R,ugm-3
29-01-1999,24:00,50,R,ugm-3
30-01-1999,01:00,52,R,ugm-3
30-01-1999,02:00,56,R,ugm-3
30-01-1999,03:00,56,R,ugm-3
30-01-1999,04:00,52,R,ugm-3
30-01-1999,05:00,50,R,ugm-3
30-01-1999,06:00,44,R,ugm-3
30-01-1999,07:00,38,R,ugm-3
30-01-1999,08:00,38,R,ugm-3
30-01-1999,09:00,30,R,ugm-3
30-01-1999,10:00,18,R,ugm-3
30-01-1999,11:00,22,R,ugm-3
30-01-1999,12:00,34,R,ugm-3
30-01-1999,13:00,32,R,ugm-3
30-01-1999,14:00,34,R,ugm-3
30-01-1999,15:00,34,R,ugm-3
30-01-1999,16:00,30,R,ugm-3
30-01-1999,17:00,28,R,ugm-3
30-01-1999,18:00,24,R,ugm-3
30-01-1999,19:00,32,R,ugm-3
30-01-1999,20:00,42,R,ugm-3
30-01-1999,21:00,42,R,ugm-3
30-01-1999,22:00,42,R,ugm-3
30-01-1999,23:00,38,R,ugm-3
30-01-1999,24:00,40,R,ugm-3
31-01-1999,01:00,34,R,ugm-3
31-01-1999,02:00,30,R,ugm-3
31-01-1999,03:00,32,R,ugm-3
31-01-1999,04:00,36,R,ugm-3
31-01-1999,05:00,32,R,ugm-3
31-01-1999,06:00,28,R,ugm-3
31-01-1999,07:00,24,R,ugm-3
31-01-1999,08:00,20,R,ugm-3
31-01-1999,09:00,16,R,ugm-3
31-01-1999,10:00,18,R,ugm-3
31-01-1999,11:00,18,R,ugm-3
31-01-1999,12:00,22,R,ugm-3
31-01-1999,13:00,28,R,ugm-3
31-01-1999,14:00,30,R,ugm-3
31-01-1999,15:00,34,R,ugm-3
31-01-1999,16:00,32,R,ugm-3
31-01-1999,17:00,26,R,ugm-3
31-01-1999,18:00,20,R,ugm-3
31-01-1999,19:00,14,R,ugm-3
31-01-1999,20:00,14,R,ugm-3
31-01-1999,21:00,10,R,ugm-3
31-01-1999,22:00,2,R,ugm-3
31-01-1999,23:00,2,R,ugm-3
31-01-1999,24:00,2,R,ugm-3
01-02-1999,01:00,2,R,ugm-3
01-02-1999,02:00,2,R,ugm-3
01-02-1999,03:00,2,R,ugm-3
01-02-1999,04:00,12,R,ugm-3
01-02-1999,05:00,30,R,ugm-3
01-02-1999,06:00,34,R,ugm-3
01-02-1999,07:00,34,R,ugm-3
01-02-1999,08:00,30,R,ugm-3
01-02-1999,09:00,28,R,ugm-3
01-02-1999,10:00,30,R,ugm-3
01-02-1999,11:00,34,R,ugm-3
01-02-1999,12:00,34,R,ugm-3
01-02-1999,13:00,,,
01-02-1999,14:00,14,R,ugm-3
01-02-1999,15:00,34,R,ugm-3
01-02-1999,16:00,38,R,ugm-3
01-02-1999,17:00,38,R,ugm-3
01-02-1999,18:00,42,R,ugm-3
01-02-1999,19:00,46,R,ugm-3
01-02-1999,20:00,42,R,ugm-3
01-02-1999,21:00,40,R,ugm-3
01-02-1999,22:00,46,R,ugm-3
01-02-1999,23:00,52,R,ugm-3
01-02-1999,24:00,54,R,ugm-3
02-02-1999,01:00,58,R,ugm-3
02-02-1999,02:00,58,R,ugm-3
02-02-1999,03:00,58,R,ugm-3
02-02-1999,04:00,52,R,ugm-3
02-02-1999,05:00,40,R,ugm-3
02-02-1999,06:00,32,R,ugm-3
02-02-1999,07:00,28,R,ugm-3
02-02-1999,08:00,16,R,ugm-3
02-02-1999,09:00,6,R,ugm-3
02-02-1999,10:00,8,R,ugm-3
02-02-1999,11:00,26,R,ugm-3
02-02-1999,12:00,22,R,ugm-3
02-02-1999,13:00,34,R,ugm-3
02-02-1999,14:00,48,R,ugm-3
02-02-1999,15:00,48,R,ugm-3
02-02-1999,16:00,68,R,ugm-3
02-02-1999,17:00,64,R,ugm-3
02-02-1999,18:00,56,R,ugm-3
02-02-1999,19:00,36,R,ugm-3
02-02-1999,20:00,22,R,ugm-3
02-02-1999,21:00,12,R,ugm-3
02-02-1999,22:00,26,R,ugm-3
02-02-1999,23:00,30,R,ugm-3
02-02-1999,24:00,28,R,ugm-3
03-02-1999,01:00,34,R,ugm-3
03-02-1999,02:00,42,R,ugm-3
03-02-1999,03:00,46,R,ugm-3
03-02-1999,04:00,54,R,ugm-3
03-02-1999,05:00,56,R,ugm-3
03-02-1999,06:00,56,R,ugm-3
03-02-1999,07:00,56,R,ugm-3
03-02-1999,08:00,48,R,ugm-3
03-02-1999,09:00,46,R,ugm-3
03-02-1999,10:00,52,R,ugm-3
03-02-1999,11:00,60,R,ugm-3
03-02-1999,12:00,64,R,ugm-3
03-02-1999,13:00,70,R,ugm-3
03-02-1999,14:00,,,
03-02-1999,15:00,64,R,ugm-3
03-02-1999,16:00,64,R,ugm-3
03-02-1999,17:00,58,R,ugm-3
03-02-1999,18:00,58,R,ugm-3
03-02-1999,19:00,54,R,ugm-3
03-02-1999,20:00,64,R,ugm-3
03-02-1999,21:00,68,R,ugm-3
03-02-1999,22:00,66,R,ugm-3
03-02-1999,23:00,70,R,ugm-3
03-02-1999,24:00,74,R,ugm-3
04-02-1999,01:00,74,R,ugm-3
04-02-1999,02:00,72,R,ugm-3
04-02-1999,03:00,72,R,ugm-3
04-02-1999,04:00,72,R,ugm-3
04-02-1999,05:00,74,R,ugm-3
04-02-1999,06:00,76,R,ugm-3
04-02-1999,07:00,74,R,ugm-3
04-02-1999,08:00,72,R,ugm-3
04-02-1999,09:00,70,R,ugm-3
04-02-1999,10:00,72,R,ugm-3
04-02-1999,11:00,,,
04-02-1999,12:00,74,R,ugm-3
04-02-1999,13:00,74,R,ugm-3
04-02-1999,14:00,74,R,ugm-3
04-02-1999,15:00,76,R,ugm-3
04-02-1999,16:00,74,R,ugm-3
04-02-1999,17:00,74,R,ugm-3
04-02-1999,18:00,72,R,ugm-3
04-02-1999,19:00,78,R,ugm-3
04-02-1999,20:00,86,R,ugm-3
04-02-1999,21:00,84,R,ugm-3
04-02-1999,22:00,82,R,ugm-3
04-02-1999,23:00,90,R,ugm-3
04-02-1999,24:00,90,R,ugm-3
05-02-1999,01:00,90,R,ugm-3
05-02-1999,02:00,90,R,ugm-3
05-02-1999,03:00,90,R,ugm-3
05-02-1999,04:00,88,R,ugm-3
05-02-1999,05:00,88,R,ugm-3
05-02-1999,06:00,86,R,ugm-3
05-02-1999,07:00,86,R,ugm-3
05-02-1999,08:00,84,R,ugm-3
05-02-1999,09:00,82,R,ugm-3
05-02-1999,10:00,82,R,ugm-3
05-02-1999,11:00,82,R,ugm-3
05-02-1999,12:00,82,R,ugm-3
05-02-1999,13:00,80,R,ugm-3
05-02-1999,14:00,80,R,ugm-3